Time,TemperatureF,DewpointF,PressureIn,WindDirection,WindDirectionDegrees,WindSpeedMPH,WindSpeedGustMPH,Humidity,HourlyPrecipIn,Conditions,Clouds,dailyrainin,SoftwareType,DateUTC
2013-10-15 00:09:00,67.4,50.0,29.81,West,269,3.0,8.0,53,0.00,,,0.00,weatherlink.com 1.10,2013-10-15 05:09:00,
2013-10-15 00:24:00,67.4,50.0,29.80,West,271,0.0,5.0,54,0.00,,,0.00,weatherlink.com 1.10,2013-10-15 05:24:00,
2013-10-15 00:39:00,67.5,51.0,29.80,West,266,0.0,1.0,55,0.00,,,0.00,weatherlink.com 1.10,2013-10-15 05:39:00,
2013-10-15 00:54:00,67.5,51.0,29.79,West,266,0.0,0.0,55,0.00,,,0.00,weatherlink.com 1.10,2013-10-15 05:54:00,
2013-10-15 01:10:00,66.8,50.0,29.78,West,265,0.0,0.0,56,0.00,,,0.00,weatherlink.com 1.10,2013-10-15 06:10:00,
2013-10-15 01:25:00,67.0,51.0,29.78,SE,127,0.0,2.0,57,0.00,,,0.00,weatherlink.com 1.10,2013-10-15 06:25:00,
2013-10-15 01:40:00,66.6,53.0,29.79,East,96,1.0,4.0,62,0.00,,,0.00,weatherlink.com 1.10,2013-10-15 06:40:00,
2013-10-15 01:55:00,66.4,54.0,29.79,ESE,113,0.0,2.0,64,0.00,,,0.00,weatherlink.com 1.10,2013-10-15 06:55:00,
2013-10-15 02:10:00,65.4,55.0,29.80,ESE,113,0.0,1.0,70,0.00,,,0.00,weatherlink.com 1.10,2013-10-15 07:10:00,
2013-10-15 02:25:00,63.7,56.0,29.80,ESE,113,0.0,1.0,76,0.00,,,0.00,weatherlink.com 1.10,2013-10-15 07:25:00,
2013-10-15 02:40:00,63.1,56.0,29.80,ESE,109,4.0,4.0,78,0.01,,,0.01,weatherlink.com 1.10,2013-10-15 07:40:00,
2013-10-15 02:55:00,62.5,56.0,29.81,ESE,116,0.0,4.0,79,0.01,,,0.01,weatherlink.com 1.10,2013-10-15 07:55:00,
2013-10-15 03:10:00,62.2,56.0,29.82,East,100,0.0,4.0,80,0.02,,,0.02,weatherlink.com 1.10,2013-10-15 08:10:00,
2013-10-15 03:25:00,61.4,57.0,29.83,SSW,209,0.0,3.0,84,0.03,,,0.03,weatherlink.com 1.10,2013-10-15 08:25:00,
2013-10-15 03:40:00,61.0,55.0,29.82,SSW,209,0.0,0.0,81,0.03,,,0.04,weatherlink.com 1.10,2013-10-15 08:40:00,
2013-10-15 03:55:00,60.9,56.0,29.82,SSW,209,0.0,0.0,83,0.04,,,0.05,weatherlink.com 1.10,2013-10-15 08:55:00,
2013-10-15 04:10:00,60.8,56.0,29.82,SSW,209,0.0,0.0,84,0.04,,,0.06,weatherlink.com 1.10,2013-10-15 09:10:00,
2013-10-15 04:25:00,60.6,57.0,29.82,South,190,0.0,1.0,87,0.03,,,0.06,weatherlink.com 1.10,2013-10-15 09:25:00,
2013-10-15 04:40:00,60.3,56.0,29.81,South,190,0.0,1.0,84,0.03,,,0.07,weatherlink.com 1.10,2013-10-15 09:40:00,
2013-10-15 04:55:00,60.4,56.0,29.80,South,190,0.0,1.0,85,0.02,,,0.07,weatherlink.com 1.10,2013-10-15 09:55:00,
2013-10-15 05:10:00,60.2,56.0,29.80,South,190,0.0,0.0,85,0.01,,,0.07,weatherlink.com 1.10,2013-10-15 10:10:00,
2013-10-15 05:25:00,60.1,56.0,29.81,South,190,0.0,1.0,86,0.02,,,0.08,weatherlink.com 1.10,2013-10-15 10:25:00,
2013-10-15 05:40:00,59.8,56.0,29.81,South,190,0.0,1.0,86,0.01,,,0.08,weatherlink.com 1.10,2013-10-15 10:40:00,
2013-10-15 05:55:00,59.3,56.0,29.81,South,190,0.0,0.0,87,0.02,,,0.09,weatherlink.com 1.10,2013-10-15 10:55:00,
2013-10-15 06:10:00,59.4,56.0,29.80,South,190,0.0,0.0,87,0.03,,,0.10,weatherlink.com 1.10,2013-10-15 11:10:00,
2013-10-15 06:25:00,59.1,55.0,29.80,South,190,0.0,0.0,87,0.04,,,0.12,weatherlink.com 1.10,2013-10-15 11:25:00,
2013-10-15 06:40:00,59.3,56.0,29.80,South,190,0.0,0.0,88,0.04,,,0.12,weatherlink.com 1.10,2013-10-15 11:40:00,
2013-10-15 06:55:00,59.2,56.0,29.80,South,190,0.0,0.0,88,0.03,,,0.12,weatherlink.com 1.10,2013-10-15 11:55:00,
2013-10-15 07:10:00,59.4,56.0,29.82,South,190,0.0,1.0,89,0.04,,,0.14,weatherlink.com 1.10,2013-10-15 12:10:00,
2013-10-15 07:25:00,59.0,56.0,29.80,South,180,1.0,1.0,90,0.03,,,0.15,weatherlink.com 1.10,2013-10-15 12:25:00,
2013-10-15 07:40:00,58.9,56.0,29.80,South,180,1.0,2.0,90,0.04,,,0.16,weatherlink.com 1.10,2013-10-15 12:40:00,
2013-10-15 07:55:00,58.9,56.0,29.81,South,175,0.0,1.0,90,0.04,,,0.16,weatherlink.com 1.10,2013-10-15 12:55:00,
2013-10-15 08:10:00,58.8,56.0,29.83,South,175,0.0,1.0,91,0.03,,,0.17,weatherlink.com 1.10,2013-10-15 13:10:00,
2013-10-15 08:25:00,58.9,56.0,29.81,South,175,0.0,1.0,90,0.03,,,0.18,weatherlink.com 1.10,2013-10-15 13:25:00,
2013-10-15 08:40:00,59.0,56.0,29.81,South,175,0.0,2.0,90,0.02,,,0.18,weatherlink.com 1.10,2013-10-15 13:40:00,
2013-10-15 08:55:00,59.0,56.0,29.81,South,175,0.0,0.0,90,0.02,,,0.18,weatherlink.com 1.10,2013-10-15 13:55:00,
2013-10-15 09:10:00,59.5,56.0,29.81,South,175,0.0,0.0,89,0.01,,,0.18,weatherlink.com 1.10,2013-10-15 14:10:00,
2013-10-15 09:25:00,59.5,56.0,29.82,South,175,0.0,2.0,89,0.00,,,0.18,weatherlink.com 1.10,2013-10-15 14:25:00,
2013-10-15 09:40:00,59.5,57.0,29.83,South,176,0.0,0.0,91,0.00,,,0.18,weatherlink.com 1.10,2013-10-15 14:40:00,
2013-10-15 09:55:00,59.5,57.0,29.84,South,175,0.0,0.0,90,0.02,,,0.20,weatherlink.com 1.10,2013-10-15 14:55:00,
2013-10-15 10:10:00,59.6,57.0,29.84,South,175,0.0,0.0,91,0.02,,,0.20,weatherlink.com 1.10,2013-10-15 15:10:00,
2013-10-15 10:25:00,59.4,57.0,29.84,WNW,300,3.0,4.0,91,0.02,,,0.20,weatherlink.com 1.10,2013-10-15 15:25:00,
2013-10-15 10:40:00,59.9,57.0,29.84,WNW,283,0.0,7.0,91,0.02,,,0.20,weatherlink.com 1.10,2013-10-15 15:40:00,
2013-10-15 10:55:00,60.1,57.0,29.86,WNW,283,0.0,0.0,90,0.00,,,0.20,weatherlink.com 1.10,2013-10-15 15:55:00,
2013-10-15 11:10:00,59.9,57.0,29.86,West,279,0.0,2.0,91,0.01,,,0.21,weatherlink.com 1.10,2013-10-15 16:10:00,
2013-10-15 11:26:00,60.0,57.0,29.85,WNW,294,0.0,1.0,90,0.03,,,0.23,weatherlink.com 1.10,2013-10-15 16:26:00,
2013-10-15 11:41:00,60.1,58.0,29.85,WNW,295,0.0,2.0,91,0.04,,,0.24,weatherlink.com 1.10,2013-10-15 16:41:00,
2013-10-15 11:56:00,59.8,57.0,29.86,WNW,294,0.0,0.0,91,0.06,,,0.26,weatherlink.com 1.10,2013-10-15 16:56:00,
2013-10-15 12:11:00,59.8,57.0,29.87,WNW,294,0.0,2.0,91,0.07,,,0.28,weatherlink.com 1.10,2013-10-15 17:11:00,
2013-10-15 12:26:00,59.7,57.0,29.86,WNW,294,0.0,0.0,89,0.07,,,0.30,weatherlink.com 1.10,2013-10-15 17:26:00,
2013-10-15 12:41:00,60.4,58.0,29.84,WNW,294,0.0,0.0,90,0.06,,,0.30,weatherlink.com 1.10,2013-10-15 17:41:00,
2013-10-15 12:56:00,60.2,57.0,29.84,WNW,294,0.0,0.0,89,0.04,,,0.30,weatherlink.com 1.10,2013-10-15 17:56:00,
2013-10-15 13:11:00,60.2,57.0,29.85,WNW,294,0.0,0.0,90,0.03,,,0.31,weatherlink.com 1.10,2013-10-15 18:11:00,
2013-10-15 13:26:00,60.7,58.0,29.84,WNW,294,0.0,0.0,91,0.02,,,0.32,weatherlink.com 1.10,2013-10-15 18:26:00,
2013-10-15 13:41:00,60.7,58.0,29.82,WNW,294,0.0,0.0,89,0.02,,,0.32,weatherlink.com 1.10,2013-10-15 18:41:00,
2013-10-15 13:56:00,61.5,58.0,29.82,WNW,287,0.0,3.0,87,0.02,,,0.32,weatherlink.com 1.10,2013-10-15 18:56:00,
2013-10-15 14:11:00,62.3,58.0,29.80,SE,124,0.0,3.0,87,0.01,,,0.32,weatherlink.com 1.10,2013-10-15 19:11:00,
2013-10-15 14:26:00,61.7,58.0,29.80,SSE,168,0.0,2.0,87,0.00,,,0.32,weatherlink.com 1.10,2013-10-15 19:26:00,
2013-10-15 14:41:00,61.6,57.0,29.79,SSE,150,0.0,4.0,86,0.00,,,0.32,weatherlink.com 1.10,2013-10-15 19:41:00,
2013-10-15 14:56:00,61.1,57.0,29.79,ENE,74,0.0,6.0,86,0.00,,,0.32,weatherlink.com 1.10,2013-10-15 19:56:00,
2013-10-15 15:11:00,58.7,56.0,29.80,ENE,64,4.0,9.0,90,0.03,,,0.35,weatherlink.com 1.10,2013-10-15 20:11:00,
2013-10-15 15:26:00,56.6,54.0,29.82,ENE,63,0.0,10.0,92,0.03,,,0.35,weatherlink.com 1.10,2013-10-15 20:26:00,
2013-10-15 15:41:00,55.9,54.0,29.83,East,98,2.0,7.0,93,0.07,,,0.39,weatherlink.com 1.10,2013-10-15 20:41:00,
2013-10-15 15:56:00,55.2,53.0,29.83,NE,38,4.0,6.0,93,0.10,,,0.42,weatherlink.com 1.10,2013-10-15 20:56:00,
2013-10-15 16:26:00,54.5,53.0,29.84,ESE,109,1.0,9.0,93,0.09,,,0.45,weatherlink.com 1.10,2013-10-15 21:26:00,
2013-10-15 16:41:00,54.3,52.0,29.83,ESE,105,0.0,8.0,93,0.07,,,0.47,weatherlink.com 1.10,2013-10-15 21:41:00,
2013-10-15 16:56:00,54.3,52.0,29.84,SE,138,1.0,3.0,93,0.06,,,0.48,weatherlink.com 1.10,2013-10-15 21:56:00,
2013-10-15 17:11:00,54.6,53.0,29.82,ESE,117,0.0,3.0,93,0.04,,,0.48,weatherlink.com 1.10,2013-10-15 22:11:00,
2013-10-15 17:26:00,54.8,53.0,29.83,ESE,117,0.0,1.0,93,0.04,,,0.49,weatherlink.com 1.10,2013-10-15 22:26:00,
2013-10-15 17:41:00,53.9,52.0,29.83,East,101,0.0,1.0,93,0.02,,,0.49,weatherlink.com 1.10,2013-10-15 22:41:00,
2013-10-15 17:56:00,52.7,51.0,29.84,East,101,6.0,7.0,93,0.01,,,0.49,weatherlink.com 1.10,2013-10-15 22:56:00,
2013-10-15 18:11:00,52.3,50.0,29.86,NNE,32,4.0,9.0,93,0.02,,,0.50,weatherlink.com 1.10,2013-10-15 23:11:00,
2013-10-15 18:26:00,51.6,50.0,29.86,East,101,3.0,7.0,94,0.04,,,0.53,weatherlink.com 1.10,2013-10-15 23:26:00,
2013-10-15 18:41:00,51.0,49.0,29.86,ENE,76,0.0,8.0,94,0.07,,,0.56,weatherlink.com 1.10,2013-10-15 23:41:00,
2013-10-15 18:56:00,51.0,49.0,29.85,ESE,109,4.0,10.0,94,0.10,,,0.59,weatherlink.com 1.10,2013-10-15 23:56:00,
2013-10-15 19:11:00,51.0,49.0,29.82,ESE,119,10.0,16.0,94,0.10,,,0.60,weatherlink.com 1.10,2013-10-16 00:11:00,
2013-10-15 19:26:00,51.5,50.0,29.82,East,94,0.0,12.0,94,0.07,,,0.60,weatherlink.com 1.10,2013-10-16 00:26:00,
2013-10-15 19:41:00,50.7,49.0,29.86,NE,36,0.0,4.0,94,0.04,,,0.60,weatherlink.com 1.10,2013-10-16 00:41:00,
2013-10-15 19:56:00,50.1,49.0,29.86,NNE,13,1.0,6.0,94,0.01,,,0.60,weatherlink.com 1.10,2013-10-16 00:56:00,
2013-10-15 20:11:00,49.9,49.0,29.88,NW,316,0.0,5.0,95,0.00,,,0.60,weatherlink.com 1.10,2013-10-16 01:11:00,
2013-10-15 20:26:00,49.9,49.0,29.89,ESE,105,3.0,6.0,95,0.00,,,0.60,weatherlink.com 1.10,2013-10-16 01:26:00,
2013-10-15 20:41:00,49.8,49.0,29.89,ESE,105,0.0,5.0,95,0.00,,,0.60,weatherlink.com 1.10,2013-10-16 01:41:00,
2013-10-15 20:56:00,49.8,49.0,29.90,SE,131,0.0,7.0,95,0.00,,,0.60,weatherlink.com 1.10,2013-10-16 01:56:00,
2013-10-15 21:12:00,49.5,48.0,29.92,ESE,105,2.0,9.0,95,0.00,,,0.60,weatherlink.com 1.10,2013-10-16 02:12:00,
2013-10-15 21:27:00,49.2,48.0,29.92,NNE,30,0.0,5.0,95,0.00,,,0.60,weatherlink.com 1.10,2013-10-16 02:27:00,
2013-10-15 21:42:00,49.0,48.0,29.93,ENE,59,0.0,7.0,95,0.00,,,0.60,weatherlink.com 1.10,2013-10-16 02:42:00,
2013-10-15 21:57:00,48.5,47.0,29.94,ESE,113,5.0,7.0,95,0.00,,,0.60,weatherlink.com 1.10,2013-10-16 02:57:00,
2013-10-15 22:12:00,48.6,48.0,29.93,East,86,0.0,5.0,96,0.00,,,0.60,weatherlink.com 1.10,2013-10-16 03:12:00,
2013-10-15 22:27:00,48.4,47.0,29.95,NE,56,0.0,5.0,96,0.00,,,0.60,weatherlink.com 1.10,2013-10-16 03:27:00,
2013-10-15 22:42:00,48.3,47.0,29.95,North,355,0.0,4.0,96,0.00,,,0.60,weatherlink.com 1.10,2013-10-16 03:42:00,
2013-10-15 22:57:00,48.4,47.0,29.95,NE,49,0.0,6.0,96,0.00,,,0.60,weatherlink.com 1.10,2013-10-16 03:57:00,
2013-10-15 23:12:00,48.4,47.0,29.96,ESE,114,0.0,0.0,96,0.00,,,0.60,weatherlink.com 1.10,2013-10-16 04:12:00,
2013-10-15 23:27:00,48.2,47.0,29.96,SE,134,0.0,0.0,96,0.00,,,0.60,weatherlink.com 1.10,2013-10-16 04:27:00,
2013-10-15 23:42:00,48.1,47.0,29.96,NE,55,0.0,0.0,96,0.00,,,0.60,weatherlink.com 1.10,2013-10-16 04:42:00,
2013-10-15 23:57:00,48.3,47.0,29.96,East,92,0.0,0.0,96,0.00,,,0.60,weatherlink.com 1.10,2013-10-16 04:57:00,